sat.trackr.live / text

‹ back to catalog

QIANFAN-78

NORAD 63164 · 2025-046F

PAYLOAD ACTIVE UNKNOWN

§ Identity

Operator
Country
PRC
Launch date
2025-03-11
Launch site
WSC
Launch vehicle
Mass (kg)
RCS (m²)

External: N2YO · Heavens-Above · Gunter

§ Orbital elements

Epoch: 2026-09-22T20:49:27.178752Z

Period
106.59 min
Inclination
88.9641°
Eccentricity
0.0015948
Mean motion
13.51012657 rev/d
Perigee alt
1,056.7 km
Apogee alt
1,080.4 km
Semi-major
7,446.7 km
B*
9.0790e-5
RAAN
290.4870°
Arg perigee
35.4804°
Mean anomaly
324.7405°
Rev number
8,579

§ Raw data

QIANFAN-781 63164U 25046F   26265.86767568  .00000071  00000+0  90790-4 0  99972 63164  88.9641 290.4870 0015948  35.4804 324.7405 13.51012657 85794

JSON: /api/v1/satellites/63164 · /tle

For live sub-satellite position, see the globe view (requires WebGL).

§ Visibility from observer

Set your observer location to see the next 7 days of passes ≥ 10°. The values pass through the URL so the page stays shareable.

No JS? Fill the form by hand. The geolocation button needs JavaScript.